Theta_e
296 295 295 295 295 295 295 295 298 298 299 299 301 300 298 297 296 295 294 295 297 299
295 295 295 295 295 295 296 297 297 298 298 297 299 300 297 295 294 294 293 294 296 298
295 296 296 295 295 295 295 295 295 297 297 296 298 299 297 295 295 293 293 294 294 297
295 296 296 295 295 295 295 295 295 296 297 296 295 297 296 294 294 292 292 292 294 295
295 295 295 295 295 295 295 295 295 296 296 296 295 296 295 293 292 291 291 291 292 294
295 294 295 295 295 295 295 295 295 295 295 295 295 295 295 293 292 291 291 291 291 292
294 295 295 296 295 295 295 295 294 295 295 295 295 294 294 292 291 290 291 291 291 292
294 295 295 295 296 296 295 295 295 294 294 295 295 294 292 291 290 289 289 290 290 290
294 295 295 295 295 295 295 295 294 293 294 293 294 292 292 290 289 289 288 288 288 288
294 294 294 295 295 295 295 295 294 293 293 292 293 292 293 291 288 288 288 287 287 287
292 292 293 294 294 294 294 294 293 293 293 292 292 291 292 291 288 287 287 287 287 286
290 290 291 291 291 292 293 293 293 292 292 292 291 290 290 290 287 287 286 287 286 286
289 289 289 289 290 291 291 291 292 291 291 291 290 290 290 290 288 286 285 285 286 287
288 287 288 289 289 290 290 290 289 289 289 289 290 291 290 290 289 287 285 285 285 285
Wind_Speed
5 3 3 3 3 3 2 3 4 5 5 5 5 4 5 3 4 5 5 6 5 5
6 6 5 6 4 3 4 3 4 4 5 5 4 3 4 3 4 4 4 4 5 4
7 7 6 6 7 6 6 4 4 4 4 5 4 3 1 2 3 4 3 3 5 5
7 7 7 6 7 7 6 6 6 5 5 4 4 3 2 2 2 3 4 4 4 4
7 7 7 7 8 7 8 7 7 6 6 6 5 4 4 4 2 2 3 4 4 4
10 8 9 9 9 7 8 8 7 7 7 6 6 6 6 5 4 4 3 3 4 4
8 10 10 10 9 9 9 9 9 9 8 7 7 6 6 6 5 4 4 3 3 4
8 8 8 10 11 11 10 11 12 9 9 8 6 6 7 7 6 5 5 5 4 4
9 9 10 11 11 11 13 13 12 12 11 9 8 11 13 9 6 6 5 5 4 4
13 13 13 13 13 13 14 14 14 15 12 14 13 12 13 14 6 6 6 5 4 4
13 14 14 15 15 15 14 14 14 15 15 12 9 16 15 14 7 6 7 7 6 5
14 14 15 15 16 16 16 15 15 14 15 14 12 12 15 12 8 7 8 7 6 6
13 14 14 14 15 13 14 15 13 15 13 13 10 10 12 13 7 9 7 6 7 11
12 13 13 15 14 16 14 13 13 12 11 8 7 7 12 15 10 10 7 7 6 6
Wind_Direction
238 237 253 262 276 293 293 299 311 334 347 350 356 5 5 360 2 357 350 345 349 335
245 237 241 253 253 263 279 278 310 316 328 337 341 353 359 1 353 352 345 337 340 338
235 240 243 246 252 248 260 254 281 282 289 312 315 310 353 338 330 356 346 353 346 347
239 240 243 242 250 247 250 251 252 247 249 264 282 275 252 304 326 354 344 344 342 338
245 239 241 241 242 241 241 244 246 252 247 248 255 257 239 248 264 307 335 333 335 333
252 243 244 246 244 241 240 240 240 238 235 240 240 241 231 230 238 249 269 311 335 310
262 259 259 260 251 246 238 242 240 231 232 231 234 226 224 222 231 249 256 271 283 289
284 279 277 273 268 261 251 245 241 237 230 230 234 229 214 210 214 229 244 251 259 268
324 312 296 287 280 275 265 257 244 236 232 224 226 222 214 193 206 221 225 250 266 271
340 332 322 311 299 287 277 271 259 247 225 226 224 214 219 203 201 211 220 225 239 266
339 333 330 325 319 309 296 281 269 260 244 230 220 213 211 210 201 213 224 220 220 230
331 329 328 325 323 318 311 300 282 265 254 234 229 217 209 199 189 214 231 224 217 220
321 320 317 316 319 313 314 306 297 281 256 232 223 212 225 213 204 206 221 226 228 233
316 315 312 314 316 320 319 314 312 289 274 254 228 229 214 221 210 212 213 219 223 227